Regional Weather Roundup
Issued by NWS

Current Version | Previous Version | Text Only | Print | Product List | Glossary On
Versions: 1 2 3 4 5 6 7 8 9 10 11 12 13 14 15 16 17 18 19 20 21 22 23 24 25 26 27 28 29 30 31 32 33 34 35 36 37 38 39 40 41 42 43 44 45 46 47 48 49 50
385
ASUS42 KFFC 220610
RWRGA
WEATHER ROUNDUP FOR GEORGIA
NATIONAL WEATHER SERVICE PEACHTREE CITY GA
200 AM EDT SUN SEP 22 2019

NOTE: "FAIR" INDICATES FEW OR NO CLOUDS BELOW 12,000 FEET WITH NO
SIGNIFICANT WEATHER AND/OR OBSTRUCTIONS TO VISIBILITY.

* = USE WITH CAUTION. THE STATIONS MARKED WITH AN ASTERISK MAY NOT
REPORT WEATHER SUCH AS PRECIPITATION, FOG, OR THUNDER AND ARE NOT
QUALITY CONTROLLED BY NWS.

THE REMARK "TC" DENOTES TEMPERATURE READING IN DEGREES CELSIUS.

GAZ001>058-220700-
NORTH GEORGIA

CITY           SKY/WX    TMP DP  RH WIND       PRES   REMARKS
ATLANTA        FAIR      70  56  61 SE3       30.22F
6HR MIN TEMP:  70; 6HR MAX TEMP:  82;

ATHENS         FAIR      68  56  65 S6        30.23S
6HR MIN TEMP:  63; 6HR MAX TEMP:  73;

CHAMBLEE       FAIR      63  57  81 CALM      30.22F
6HR MIN TEMP:  61; 6HR MAX TEMP:  78;

PEACHTREE CITY FAIR      61  59  93 CALM      30.22F
6HR MIN TEMP:  61; 6HR MAX TEMP:  74;

ROME           FAIR      62  57  83 CALM      30.20F
6HR MIN TEMP:  61; 6HR MAX TEMP:  79;

WEST ATLANTA   FAIR      63  59  87 CALM      30.21F
6HR MIN TEMP:  62; 6HR MAX TEMP:  75;

GAINESVILLE    FAIR      70  57  63 SE3       30.26F
6HR MIN TEMP:  68; 6HR MAX TEMP:  77;

CARTERSVILLE   FAIR      60  57  89 CALM      30.22S
6HR MIN TEMP:  60; 6HR MAX TEMP:  75;



CITY           SKY/WX    TMP DP  RH WIND       PRES   REMARKS
DALTON*        FAIR      63  57  82 CALM      30.23F
LAWRENCEVILLE* FAIR      61  60  97 CALM      30.23F
MARIETTA       FAIR      65  57  76 CALM      30.22F
KENNESAW*      FAIR      67  58  72 CALM      30.23F
CANTON*        FAIR      63  59  88 CALM      30.25S
BLAIRSVILLE*     N/A    N/A N/A N/A CALM      30.29F FOG
$$

GAZ059>098-102>109-220700-
CENTRAL GEORGIA

CITY           SKY/WX    TMP DP  RH WIND       PRES   REMARKS
AUGUSTA-BUSH   FAIR      61  57  87 CALM      30.22F
6HR MIN TEMP:  61; 6HR MAX TEMP:  73;

AUGUSTA-DANIEL FAIR      71  59  65 CALM      30.23F
6HR MIN TEMP:  71; 6HR MAX TEMP:  83;

COLUMBUS       FAIR      72  57  59 E5        30.19F
6HR MIN TEMP:  69; 6HR MAX TEMP:  83;

MACON          FAIR      65  57  75 E3        30.21F
6HR MIN TEMP:  64; 6HR MAX TEMP:  78;

ROBINS AFB     CLEAR     64  60  87 CALM      30.20F


CITY           SKY/WX    TMP DP  RH WIND       PRES   REMARKS
LAGRANGE*      FAIR      61  60  96 CALM      30.20F
SYLVANIA*        N/A     60  59  96 CALM      30.23S
MILLEDGEVILLE* FAIR      68  59  73 CALM      30.22F
$$

GAZ099>101-110>166-220700-
SOUTH GEORGIA

CITY           SKY/WX    TMP DP  RH WIND       PRES   REMARKS
SAVANNAH       FAIR      66  65  96 CALM      30.21F
6HR MIN TEMP:  65; 6HR MAX TEMP:  76;

VALDOSTA       FAIR      63  60  90 CALM      30.19S
6HR MIN TEMP:  63; 6HR MAX TEMP:  79;

ALMA           FAIR      62  60  93 CALM      30.20F
6HR MIN TEMP:  62; 6HR MAX TEMP:  77;

ST SIMONS      FAIR      78  64  61 E9        30.18F
6HR MIN TEMP:  77; 6HR MAX TEMP:  79;

FT STEWART     FAIR      65  62  91 CALM      30.19S
ALBANY         FAIR      69  61  75 CALM      30.21S
HUNTER AFB     FAIR      69  64  86 CALM      30.18F
MOODY AFB      FAIR      67  65  93 NE5       30.18F
BRUNSWICK      FAIR      65  64  99 CALM      30.19S


CITY           SKY/WX    TMP DP  RH WIND       PRES   REMARKS
BAINBRIDGE*    FAIR      69  63  80 E6        30.18S
MOULTRIE*      FAIR      68  63  83 CALM      30.20F
VIDALIA*       FAIR      64  61  88 CALM      30.22S
WAYCROSS*      FAIR      64  60  84 NE3       30.20S
$$




USA.gov is the U.S. government's official web portal to all federal, state and local government web resources and services.